SCP
0 0 0 0 0 0 0 0 0 0 0 0 0 0 0 0 -0 0 0 0 0 0 0 -0 0 0 0 0 0 -0 0 0 0 -0 -0 -0 -0 0 0 0 0 0 0 0 0
0 0 0 0 0 0 0 0 0 0 0 0 0 0 0 -0 0 0 0 0 0 0 0 -0 0 0 0 0 0 0 0 0 -0 -0 -0 -0 -0 0 0 0 0 0 0 0 0
0 0 0 0 0 0 0 0 0 0 0 0 0 0 0 -0 0 0 0 0 0 0 0 -0 -0 -0 0 0 0 0 0 0 0 0 -0 -0 -0 0 0 0 0 0 -0 0 0
0 0 0 0 0 0 0 0 0 0 0 0 0 0 0 0 0 0 0 0 0 0 -0 -0 -0 -0 0 0 -0 0 0 0 -0 0 0 -0 0 0 0 0 0 -0 -0 -0 -0
0 0 0 0 0 0 0 0 0 0 0 0 0 0 0 0 0 0 0 0 0 0 -0 -0 -0 0 0 0 0 0 0 0 -0 0 0 0 -0 0 0 0 -0 0 -0 -0 -0
0 0 0 0 0 0 0 0 0 0 0 0 0 0 0 0 0 0 0 0 0 0 0 -0 0 0 0 0 0 0 0 -0 0 0 0 0 -0 -0 -0 -0 0 -0 0 -0 -0
0 0 0 0 0 0 0 0 0 0 0 0 0 0 0 0 -0 -0 0 0 0 -0 0 0 0 0 -0 0 0 0 0 0 0 0 0 -0 0 -0 0 -0 0 -0 -0 -0 -0
0 0 0 0 0 0 0 0 0 0 0 0 0 0 0 0 0 0 0 0 -0 0 0 0 0 0 0 0 0 0 0 0 0 -0 0 0 -0 -0 0 0 -0 -0 0 -0 0
0 0 0 0 0 0 0 0 0 0 0 0 0 0 0 -0 0 -0 0 -0 0 0 0 -0 0 0 0 0 0 0 -0 0 0 -0 -0 -0 0 -0 -0 -0 -0 -0 -0 -0 -0
0 0 0 0 0 0 0 0 0 0 0 0 0 0 -0 0 0 0 -0 -0 0 -0 -0 -0 0 0 0 0 0 0 0 0 0 -0 -0 -0 -0 -0 -0 -0 -0 0 -0 -0 -0
0 0 0 0 0 0 0 0 0 0 0 0 0 0 0 -0 0 -0 -0 0 0 0 -0 -0 -0 -0 -0 0 0 -0 -0 -0 -0 -0 -0 -0 -0 -0 -0 -0 -0 0 0 -0 -0
0 0 0 0 0 0 0 0 0 0 0 0 0 -0 -0 0 -0 -0 0 0 -0 -0 0 -0 -0 -0 -0 -0 -0 0 0 -0 -0 0 -0 -0 -0 -0 -0 -0 -0 -0 -0 -0 -0
0 0 0 0 0 0 0 0 0 0 0 -0 0 0 -0 0 -0 -0 -0 0 0 0 -0 -0 -0 -0 -0 0 -0 -0 -0 0 0 0 -0 0 0 0 0 0 -0 -0 0 -0 -0
0 0 0 0 0 0 0 0 0 0 0 0 0 0 -0 -0 -0 0 -0 -0 0 -0 -0 -0 0 -0 -0 -0 -0 0 0 0 0 0 0 0 -0 -0 -0 0 -0 -0 -0 -0 -0
0 0 0 0 0 0 0 0 0 0 0 0 0 0 0 -0 0 -0 -0 0 -0 -0 0 -0 0 0 0 0 0 0 -0 -0 0 0 -0 -0 0 0 0 -0 -0 0 0 0 -0
0 0 0 0 0 0 0 0 0 0 0 0 0 0 0 -0 -0 0 -0 0 0 0 0 0 0 -0 -0 -0 0 -0 0 0 0 0 -0 -0 0 0 0 0 0 0 0 0 0
0 0 0 0 0 0 0 0 0 0 0 0 0 0 0 0 -0 -0 0 0 0 0 0 0 0 0 -0 0 0 0 0 0 0 0 -0 -0 0 -0 0 -0 -0 -0 0 0 0
0 0 0 0 0 0 0 0 0 0 0 0 0 0 -0 -0 0 -0 -0 -0 -0 0 0 0 0 0 0 0 0 0 0 0 0 0 0 0 0 0 -0 0 -0 -0 0 -0 -0
0 0 0 0 0 0 0 0 0 0 0 0 0 0 0 -0 -0 0 -0 -0 -0 -0 0 0 0 0 0 0 0 0 0 0 0 0 0 0 0 0 0 0 0 0 0 0 0
0 0 0 0 0 0 0 0 0 0 0 0 0 0 0 0 -0 -0 0 0 -0 -0 0 0 0 0 0 -0 0 0 -0 0 0 0 0 0 0 0 0 0 0 0 0 0 0
0 0 0 0 0 0 0 0 0 -0 0 0 0 0 0 0 -0 -0 -0 -0 -0 0 0 0 0 0 0 0 -0 0 0 0 0 0 0 0 0 0 0 0 0 0 0 0 0
0 0 0 0 0 0 0 0 0 0 0 0 0 0 0 -0 -0 0 -0 -0 0 0 0 0 0 0 0 0 -0 0 0 0 0 0 0 0 0 0 0 0 0 0 0 0 0
0 0 0 0 0 0 0 0 0 0 0 0 0 0 0 -0 -0 -0 0 0 0 0 0 0 0 0 0 0 0 0 0 0 0 0 0 0 0 0 0 0 0 0 0 0 0
0 0 0 0 0 0 0 0 0 -0 0 0 0 0 0 0 0 -0 0 0 0 0 0 0 0 0 0 0 0 0 0 0 0 0 0 0 0 0 0 0 0 0 0 0 0
0 0 0 0 0 0 0 0 0 -0 0 0 0 0 0 0 0 0 0 0 0 0 0 0 0 0 0 0 0 0 0 0 0 0 0 0 0 0 0 0 0 0 0 0 0
0 0 0 0 0 0 0 0 0 0 0 0 0 0 0 0 0 -0 0 0 0 0 0 0 0 0 0 0 0 0 0 0 0 0 0 0 0 0 0 0 0 0 0 0 0
0 0 0 0 0 0 0 0 0 0 0 0 0 0 0 0 0 0 0 0 0 0 0 0 0 0 0 0 0 0 0 0 0 0 0 0 0 0 0 0 0 0 0 0 0
Wind_Speed_500mb
34 33 34 36 35 38 41 42 45 48 51 52 48 47 46 42 37 36 34 15 13 9 15 12 15 13 11 26 30 38 4 14 18 3 11 5 5 14 5 11 27 36 21 35 53
31 32 34 35 35 37 40 42 44 46 49 49 45 42 42 39 41 21 14 8 15 19 22 17 16 21 36 30 27 4 4 12 0 13 10 19 18 15 3 7 18 40 4 42 49
32 31 33 35 34 36 39 42 43 45 47 47 41 36 35 34 28 7 13 9 5 16 22 21 28 38 35 37 44 32 15 8 13 26 33 16 14 8 21 4 18 48 60 53 56
33 32 32 33 34 36 38 39 41 44 46 43 37 32 30 24 1 7 16 18 7 13 13 15 22 31 13 15 48 13 9 24 12 14 20 9 2 5 24 15 26 56 58 47 53
34 33 31 32 33 35 37 39 39 43 42 37 31 28 24 14 22 11 12 13 9 13 14 19 36 31 13 15 31 20 18 35 21 11 34 19 18 8 14 38 38 49 54 49 46
35 34 33 32 32 33 34 37 38 41 37 32 26 23 21 13 2 5 13 10 5 3 11 11 24 33 31 29 15 20 44 44 21 27 32 10 10 14 34 38 22 53 52 45 61
35 34 34 33 32 32 33 35 36 38 31 26 21 21 27 38 12 7 13 16 12 13 9 19 34 35 20 12 34 26 12 11 21 27 4 7 16 12 19 52 48 57 43 47 77
37 34 34 34 32 31 32 33 35 33 24 20 16 19 22 5 17 18 11 25 33 21 17 19 23 13 10 22 19 9 8 1 22 38 12 9 13 8 33 30 46 54 53 82 80
39 35 34 34 31 30 31 32 33 27 21 17 12 14 27 7 24 20 22 34 13 7 10 17 6 3 10 2 6 9 2 6 10 38 26 12 9 12 30 26 36 43 58 59 52
42 36 34 34 31 30 29 29 27 25 18 18 15 19 20 11 8 10 17 31 7 12 10 6 6 2 5 6 5 6 7 10 15 16 26 15 15 15 42 38 41 39 46 50 53
43 37 34 32 29 29 27 20 16 6 12 22 11 26 33 23 5 10 21 19 14 13 5 7 7 5 13 16 17 17 17 22 19 21 18 18 21 26 36 38 26 23 42 41 50
43 39 34 31 29 27 25 16 7 22 24 41 49 55 55 33 18 17 30 28 6 6 18 11 2 7 24 21 25 25 13 48 31 12 12 15 17 19 28 35 37 40 29 51 51
46 41 35 29 27 25 27 31 20 21 11 31 44 45 45 22 27 36 28 42 13 13 16 14 14 8 13 24 29 10 8 4 11 13 4 5 5 12 14 37 41 58 53 65 61
49 43 36 24 21 11 13 16 5 2 6 13 17 26 33 28 21 40 41 28 5 18 17 10 17 18 16 20 18 2 10 11 12 9 4 7 5 5 13 11 32 47 59 65 57
56 44 38 26 14 18 3 7 6 6 8 11 24 14 28 32 8 19 38 47 18 16 12 19 5 9 13 14 2 11 16 10 9 12 5 5 11 12 10 7 13 26 51 63 64
59 49 41 37 38 17 8 4 18 2 13 8 22 16 17 37 30 19 26 12 13 10 13 18 8 13 14 17 14 11 8 4 9 3 4 19 11 10 16 24 10 27 44 54 62
58 55 50 37 37 7 16 13 3 8 11 16 23 21 19 13 17 11 14 10 9 7 5 9 12 8 13 10 5 12 6 6 10 11 9 10 9 17 7 26 27 30 41 49 55
62 56 54 50 30 16 20 3 14 22 22 5 19 17 25 15 18 22 11 9 18 11 8 12 3 6 4 10 9 7 6 8 8 5 10 7 10 9 14 31 56 55 45 48 49
60 58 61 55 45 21 16 19 15 12 20 7 16 18 17 22 15 20 16 14 18 20 14 6 7 11 14 11 5 3 7 11 4 4 5 8 6 11 12 7 29 37 52 56 56
64 66 72 55 52 35 12 26 14 30 20 19 16 15 16 22 16 15 15 15 17 26 19 2 6 7 16 14 15 14 24 7 5 3 5 8 6 8 11 11 17 20 46 54 54
63 32 45 58 49 32 24 25 28 57 38 11 7 12 15 15 20 13 12 14 15 8 24 12 9 7 9 10 26 2 5 7 8 10 10 2 10 10 19 18 18 30 57 60 60
43 15 45 71 23 16 27 23 31 48 54 19 12 4 5 17 11 17 13 16 13 22 16 15 9 7 25 45 21 12 10 10 9 11 5 10 10 5 15 21 38 44 63 67 64
28 27 59 81 23 25 19 31 51 30 27 13 4 6 8 7 7 6 13 15 12 8 10 4 4 3 5 5 6 5 11 8 7 7 7 10 10 4 14 18 40 33 54 63 65
27 14 31 62 57 40 33 32 44 54 43 50 17 19 11 9 7 12 6 3 11 10 10 12 1 11 12 12 5 7 8 11 7 7 7 10 9 18 15 14 18 20 29 58 66
27 22 31 23 36 22 35 27 41 40 39 34 23 22 16 9 7 11 6 6 3 4 4 8 8 2 8 11 8 10 1 11 8 12 12 16 14 19 10 22 36 30 23 36 59
23 22 47 13 51 36 34 43 50 38 30 30 20 17 17 12 15 12 13 9 10 2 7 1 4 5 3 10 15 8 10 12 13 12 7 6 9 8 19 34 30 19 20 22 43
51 51 49 25 34 36 32 37 42 39 32 52 21 14 10 15 6 9 6 37 22 17 13 13 8 6 4 8 13 12 12 11 13 10 7 7 14 9 10 17 19 18 11 15 38
Wind_Direction_500mb
296 293 295 300 305 308 314 320 322 325 326 327 330 324 321 324 315 306 303 309 247 292 267 241 245 250 283 276 285 276 294 271 282 199 156 196 199 156 160 65 34 6 2 165 154
304 298 293 296 303 307 311 317 322 325 326 326 327 327 324 322 320 315 4 329 245 272 263 241 233 239 235 252 251 231 171 268 126 120 142 166 202 156 268 230 86 76 212 166 158
309 305 295 297 303 306 310 317 323 323 325 325 327 330 323 325 331 19 358 342 313 281 261 257 258 282 289 253 260 255 222 128 61 103 141 153 146 180 143 201 184 183 192 178 162
305 308 301 298 301 305 311 317 322 323 326 324 326 327 321 320 214 343 354 3 340 247 248 245 267 271 273 259 268 243 35 127 160 121 104 140 123 157 190 166 211 187 178 175 166
299 304 301 297 301 305 311 316 322 321 325 322 325 325 326 315 267 325 335 328 296 223 220 258 280 286 259 277 294 238 107 120 131 110 125 128 214 233 31 51 160 164 163 157 156
293 300 301 296 298 303 310 314 320 319 323 318 323 323 313 278 21 190 323 337 325 309 220 264 280 290 295 303 305 118 127 140 139 106 94 327 343 345 90 80 167 154 152 147 130
285 293 297 295 296 302 308 313 317 318 320 314 318 314 290 257 216 244 202 293 278 289 292 270 284 290 333 350 332 74 73 136 124 87 82 196 323 260 140 146 180 148 148 146 148
278 285 293 294 294 301 306 310 315 313 312 306 306 306 270 330 218 220 211 250 265 258 261 287 297 329 345 313 359 48 46 319 129 126 309 145 280 239 130 157 144 134 148 145 152
273 279 287 292 292 298 303 308 311 306 302 290 293 292 270 282 244 231 222 254 247 204 209 262 291 310 313 279 345 51 289 282 110 165 159 249 230 209 162 154 128 132 130 144 146
265 272 282 290 290 294 302 307 306 297 285 274 237 297 259 243 248 193 238 258 187 176 197 170 195 205 9 32 233 188 268 273 246 230 156 205 191 195 176 158 142 139 140 142 144
260 265 273 284 286 291 301 318 335 352 281 229 238 245 282 329 264 209 250 200 214 184 208 240 80 67 248 251 252 273 248 237 263 200 153 195 156 176 159 134 120 137 151 156 149
256 259 265 277 277 282 292 283 128 351 297 274 263 257 263 288 293 257 230 240 97 110 9 356 284 239 277 275 278 294 246 256 235 204 163 191 190 173 143 148 170 192 198 175 160
245 252 258 269 275 285 288 277 249 340 292 286 242 238 242 242 254 260 251 224 140 121 198 266 240 309 287 284 303 273 18 335 56 340 202 87 83 358 176 178 195 195 200 178 172
233 244 247 259 271 275 335 17 174 43 320 265 205 226 227 233 265 242 248 200 126 174 155 230 270 265 292 297 260 20 299 337 28 57 235 73 226 331 283 177 187 204 187 182 172
225 235 237 230 219 207 26 107 125 136 321 206 159 189 189 201 254 220 230 250 186 162 128 225 216 221 263 254 328 212 230 213 202 266 42 271 110 264 228 241 218 189 181 181 185
219 231 226 225 227 175 189 150 150 95 250 224 155 166 167 215 256 270 208 247 201 242 201 199 181 150 213 267 244 133 223 47 83 75 181 243 114 252 205 209 207 184 196 195 180
211 225 223 219 225 240 206 160 116 215 273 188 161 159 196 181 229 250 181 189 189 163 239 164 207 208 203 296 303 27 40 4 11 14 248 35 158 237 216 166 176 223 172 157 163
206 219 220 218 187 157 165 133 220 199 242 90 154 177 191 216 201 244 205 211 227 206 201 174 147 343 292 209 179 58 83 158 161 169 260 127 211 256 231 211 202 205 179 167 169
199 215 216 214 188 200 184 208 197 234 204 251 157 169 197 226 214 208 203 222 200 199 192 149 127 332 315 1 186 336 55 264 183 273 62 247 292 351 87 88 159 186 171 164 171
202 205 215 208 198 203 221 222 224 250 301 314 205 178 182 205 219 211 209 219 232 202 155 208 113 5 285 355 292 156 187 231 335 169 272 304 299 233 145 160 148 155 164 171 176
198 196 215 205 193 204 217 219 236 263 277 244 264 200 204 188 206 204 232 251 228 131 110 144 127 277 12 243 251 178 241 217 163 144 187 144 291 177 168 190 165 177 179 180 183
191 189 199 187 171 206 223 221 245 262 262 271 234 293 221 213 228 185 213 215 232 140 143 190 129 143 235 252 219 178 198 183 123 270 184 144 265 116 183 175 181 191 185 187 189
190 172 181 182 196 212 215 223 236 254 257 275 225 227 266 254 145 273 206 326 53 110 139 122 209 96 229 301 312 221 242 218 186 94 216 133 259 233 157 175 187 200 191 189 189
171 179 174 199 212 195 198 209 223 248 262 263 238 234 273 274 231 199 119 42 22 91 120 109 258 150 190 218 240 253 223 257 182 117 214 202 259 303 249 199 188 181 187 188 189
198 192 181 191 212 202 195 194 210 227 215 248 254 195 213 221 212 168 117 88 39 108 105 114 174 275 292 306 322 261 247 321 298 227 149 236 218 253 273 204 200 191 195 194 191
193 189 177 176 193 204 197 204 207 220 237 238 219 249 221 189 181 216 134 146 181 158 144 218 220 139 301 346 10 9 309 296 296 293 318 304 260 242 122 100 93 102 194 168 154
214 204 180 175 181 190 212 195 211 212 243 240 204 237 227 214 176 168 132 168 168 153 180 149 135 92 245 360 4 345 238 234 245 255 238 267 265 325 71 86 111 86 64 165 172
Wind_Speed_850mb
34 33 34 36 35 38 41 42 45 48 51 52 48 47 46 42 37 36 34 15 13 9 15 12 15 13 11 26 30 38 4 14 18 3 11 5 5 14 5 11 27 36 21 35 53
31 32 34 35 35 37 40 42 44 46 49 49 45 42 42 39 41 21 14 8 15 19 22 17 16 21 36 30 27 4 4 12 0 13 10 19 18 15 3 7 18 40 4 42 49
32 31 33 35 34 36 39 42 43 45 47 47 41 36 35 34 28 7 13 9 5 16 22 21 28 38 35 37 44 32 15 8 13 26 33 16 14 8 21 4 18 48 60 53 56
33 32 32 33 34 36 38 39 41 44 46 43 37 32 30 24 1 7 16 18 7 13 13 15 22 31 13 15 48 13 9 24 12 14 20 9 2 5 24 15 26 56 58 47 53
34 33 31 32 33 35 37 39 39 43 42 37 31 28 24 14 22 11 12 13 9 13 14 19 36 31 13 15 31 20 18 35 21 11 34 19 18 8 14 38 38 49 54 49 46
35 34 33 32 32 33 34 37 38 41 37 32 26 23 21 13 2 5 13 10 5 3 11 11 24 33 31 29 15 20 44 44 21 27 32 10 10 14 34 38 22 53 52 45 61
35 34 34 33 32 32 33 35 36 38 31 26 21 21 27 38 12 7 13 16 12 13 9 19 34 35 20 12 34 26 12 11 21 27 4 7 16 12 19 52 48 57 43 47 77
37 34 34 34 32 31 32 33 35 33 24 20 16 19 22 5 17 18 11 25 33 21 17 19 23 13 10 22 19 9 8 1 22 38 12 9 13 8 33 30 46 54 53 82 80
39 35 34 34 31 30 31 32 33 27 21 17 12 14 27 7 24 20 22 34 13 7 10 17 6 3 10 2 6 9 2 6 10 38 26 12 9 12 30 26 36 43 58 59 52
42 36 34 34 31 30 29 29 27 25 18 18 15 19 20 11 8 10 17 31 7 12 10 6 6 2 5 6 5 6 7 10 15 16 26 15 15 15 42 38 41 39 46 50 53
43 37 34 32 29 29 27 20 16 6 12 22 11 26 33 23 5 10 21 19 14 13 5 7 7 5 13 16 17 17 17 22 19 21 18 18 21 26 36 38 26 23 42 41 50
43 39 34 31 29 27 25 16 7 22 24 41 49 55 55 33 18 17 30 28 6 6 18 11 2 7 24 21 25 25 13 48 31 12 12 15 17 19 28 35 37 40 29 51 51
46 41 35 29 27 25 27 31 20 21 11 31 44 45 45 22 27 36 28 42 13 13 16 14 14 8 13 24 29 10 8 4 11 13 4 5 5 12 14 37 41 58 53 65 61
49 43 36 24 21 11 13 16 5 2 6 13 17 26 33 28 21 40 41 28 5 18 17 10 17 18 16 20 18 2 10 11 12 9 4 7 5 5 13 11 32 47 59 65 57
56 44 38 26 14 18 3 7 6 6 8 11 24 14 28 32 8 19 38 47 18 16 12 19 5 9 13 14 2 11 16 10 9 12 5 5 11 12 10 7 13 26 51 63 64
59 49 41 37 38 17 8 4 18 2 13 8 22 16 17 37 30 19 26 12 13 10 13 18 8 13 14 17 14 11 8 4 9 3 4 19 11 10 16 24 10 27 44 54 62
58 55 50 37 37 7 16 13 3 8 11 16 23 21 19 13 17 11 14 10 9 7 5 9 12 8 13 10 5 12 6 6 10 11 9 10 9 17 7 26 27 30 41 49 55
62 56 54 50 30 16 20 3 14 22 22 5 19 17 25 15 18 22 11 9 18 11 8 12 3 6 4 10 9 7 6 8 8 5 10 7 10 9 14 31 56 55 45 48 49
60 58 61 55 45 21 16 19 15 12 20 7 16 18 17 22 15 20 16 14 18 20 14 6 7 11 14 11 5 3 7 11 4 4 5 8 6 11 12 7 29 37 52 56 56
64 66 72 55 52 35 12 26 14 30 20 19 16 15 16 22 16 15 15 15 17 26 19 2 6 7 16 14 15 14 24 7 5 3 5 8 6 8 11 11 17 20 46 54 54
63 32 45 58 49 32 24 25 28 57 38 11 7 12 15 15 20 13 12 14 15 8 24 12 9 7 9 10 26 2 5 7 8 10 10 2 10 10 19 18 18 30 57 60 60
43 15 45 71 23 16 27 23 31 48 54 19 12 4 5 17 11 17 13 16 13 22 16 15 9 7 25 45 21 12 10 10 9 11 5 10 10 5 15 21 38 44 63 67 64
28 27 59 81 23 25 19 31 51 30 27 13 4 6 8 7 7 6 13 15 12 8 10 4 4 3 5 5 6 5 11 8 7 7 7 10 10 4 14 18 40 33 54 63 65
27 14 31 62 57 40 33 32 44 54 43 50 17 19 11 9 7 12 6 3 11 10 10 12 1 11 12 12 5 7 8 11 7 7 7 10 9 18 15 14 18 20 29 58 66
27 22 31 23 36 22 35 27 41 40 39 34 23 22 16 9 7 11 6 6 3 4 4 8 8 2 8 11 8 10 1 11 8 12 12 16 14 19 10 22 36 30 23 36 59
23 22 47 13 51 36 34 43 50 38 30 30 20 17 17 12 15 12 13 9 10 2 7 1 4 5 3 10 15 8 10 12 13 12 7 6 9 8 19 34 30 19 20 22 43
51 51 49 25 34 36 32 37 42 39 32 52 21 14 10 15 6 9 6 37 22 17 13 13 8 6 4 8 13 12 12 11 13 10 7 7 14 9 10 17 19 18 11 15 38
Wind_Direction_850mb
296 293 295 300 305 308 314 320 322 325 326 327 330 324 321 324 315 306 303 309 247 292 267 241 245 250 283 276 285 276 294 271 282 199 156 196 199 156 160 65 34 6 2 165 154
304 298 293 296 303 307 311 317 322 325 326 326 327 327 324 322 320 315 4 329 245 272 263 241 233 239 235 252 251 231 171 268 126 120 142 166 202 156 268 230 86 76 212 166 158
309 305 295 297 303 306 310 317 323 323 325 325 327 330 323 325 331 19 358 342 313 281 261 257 258 282 289 253 260 255 222 128 61 103 141 153 146 180 143 201 184 183 192 178 162
305 308 301 298 301 305 311 317 322 323 326 324 326 327 321 320 214 343 354 3 340 247 248 245 267 271 273 259 268 243 35 127 160 121 104 140 123 157 190 166 211 187 178 175 166
299 304 301 297 301 305 311 316 322 321 325 322 325 325 326 315 267 325 335 328 296 223 220 258 280 286 259 277 294 238 107 120 131 110 125 128 214 233 31 51 160 164 163 157 156
293 300 301 296 298 303 310 314 320 319 323 318 323 323 313 278 21 190 323 337 325 309 220 264 280 290 295 303 305 118 127 140 139 106 94 327 343 345 90 80 167 154 152 147 130
285 293 297 295 296 302 308 313 317 318 320 314 318 314 290 257 216 244 202 293 278 289 292 270 284 290 333 350 332 74 73 136 124 87 82 196 323 260 140 146 180 148 148 146 148
278 285 293 294 294 301 306 310 315 313 312 306 306 306 270 330 218 220 211 250 265 258 261 287 297 329 345 313 359 48 46 319 129 126 309 145 280 239 130 157 144 134 148 145 152
273 279 287 292 292 298 303 308 311 306 302 290 293 292 270 282 244 231 222 254 247 204 209 262 291 310 313 279 345 51 289 282 110 165 159 249 230 209 162 154 128 132 130 144 146
265 272 282 290 290 294 302 307 306 297 285 274 237 297 259 243 248 193 238 258 187 176 197 170 195 205 9 32 233 188 268 273 246 230 156 205 191 195 176 158 142 139 140 142 144
260 265 273 284 286 291 301 318 335 352 281 229 238 245 282 329 264 209 250 200 214 184 208 240 80 67 248 251 252 273 248 237 263 200 153 195 156 176 159 134 120 137 151 156 149
256 259 265 277 277 282 292 283 128 351 297 274 263 257 263 288 293 257 230 240 97 110 9 356 284 239 277 275 278 294 246 256 235 204 163 191 190 173 143 148 170 192 198 175 160
245 252 258 269 275 285 288 277 249 340 292 286 242 238 242 242 254 260 251 224 140 121 198 266 240 309 287 284 303 273 18 335 56 340 202 87 83 358 176 178 195 195 200 178 172
233 244 247 259 271 275 335 17 174 43 320 265 205 226 227 233 265 242 248 200 126 174 155 230 270 265 292 297 260 20 299 337 28 57 235 73 226 331 283 177 187 204 187 182 172
225 235 237 230 219 207 26 107 125 136 321 206 159 189 189 201 254 220 230 250 186 162 128 225 216 221 263 254 328 212 230 213 202 266 42 271 110 264 228 241 218 189 181 181 185
219 231 226 225 227 175 189 150 150 95 250 224 155 166 167 215 256 270 208 247 201 242 201 199 181 150 213 267 244 133 223 47 83 75 181 243 114 252 205 209 207 184 196 195 180
211 225 223 219 225 240 206 160 116 215 273 188 161 159 196 181 229 250 181 189 189 163 239 164 207 208 203 296 303 27 40 4 11 14 248 35 158 237 216 166 176 223 172 157 163
206 219 220 218 187 157 165 133 220 199 242 90 154 177 191 216 201 244 205 211 227 206 201 174 147 343 292 209 179 58 83 158 161 169 260 127 211 256 231 211 202 205 179 167 169
199 215 216 214 188 200 184 208 197 234 204 251 157 169 197 226 214 208 203 222 200 199 192 149 127 332 315 1 186 336 55 264 183 273 62 247 292 351 87 88 159 186 171 164 171
202 205 215 208 198 203 221 222 224 250 301 314 205 178 182 205 219 211 209 219 232 202 155 208 113 5 285 355 292 156 187 231 335 169 272 304 299 233 145 160 148 155 164 171 176
198 196 215 205 193 204 217 219 236 263 277 244 264 200 204 188 206 204 232 251 228 131 110 144 127 277 12 243 251 178 241 217 163 144 187 144 291 177 168 190 165 177 179 180 183
191 189 199 187 171 206 223 221 245 262 262 271 234 293 221 213 228 185 213 215 232 140 143 190 129 143 235 252 219 178 198 183 123 270 184 144 265 116 183 175 181 191 185 187 189
190 172 181 182 196 212 215 223 236 254 257 275 225 227 266 254 145 273 206 326 53 110 139 122 209 96 229 301 312 221 242 218 186 94 216 133 259 233 157 175 187 200 191 189 189
171 179 174 199 212 195 198 209 223 248 262 263 238 234 273 274 231 199 119 42 22 91 120 109 258 150 190 218 240 253 223 257 182 117 214 202 259 303 249 199 188 181 187 188 189
198 192 181 191 212 202 195 194 210 227 215 248 254 195 213 221 212 168 117 88 39 108 105 114 174 275 292 306 322 261 247 321 298 227 149 236 218 253 273 204 200 191 195 194 191
193 189 177 176 193 204 197 204 207 220 237 238 219 249 221 189 181 216 134 146 181 158 144 218 220 139 301 346 10 9 309 296 296 293 318 304 260 242 122 100 93 102 194 168 154
214 204 180 175 181 190 212 195 211 212 243 240 204 237 227 214 176 168 132 168 168 153 180 149 135 92 245 360 4 345 238 234 245 255 238 267 265 325 71 86 111 86 64 165 172